This demonstration page uses our WeatherBlox Daily Observations layout. Learn more.

41.55636, -103.73856

Hourly Observations for May 3, 2018

Temp ( °F °C ) Dew Point ( °F °C ) Humidity (%) Winds ( mph kmh ) Pressure ( in mb ) Visibility ( mi km ) Precip ( " mm )
12:58 am 00:58 Cloudy with Rain 44 6.4 42 5.6 95 95 NE 8 13 29.96 1015 8 12.87472 0.06 1.524
1:58 am 01:58 Cloudy with Light Rain 43 6.3 42 5.7 96 96 ENE 10 17 29.92 1013 7 11.26538 0.06 1.524
2:58 am 02:58 Mostly Cloudy with Light Showers 43 5.9 41 5.2 95 95 NNE 13 20 29.87 1011 10 16.0934 0.01 0.254
3:58 am 03:58 Mostly Cloudy with Light Showers 42 5.3 40 4.5 95 95 NNE 9 15 29.87 1011 10 16.0934 N/A
4:58 am 04:58 Cloudy with Light Showers 42 5.7 41 5.1 96 96 NE 12 19 29.87 1011 10 16.0934 N/A
5:58 am 05:58 Cloudy with Light Showers 42 5.3 40 4.4 94 94 NE 13 20 29.89 1012 10 16.0934 0.04 1.016
6:58 am 06:58 Cloudy with Rain 41 5.2 40 4.3 94 94 NNE 10 17 29.92 1013 9 14.48406 0.07 1.778
7:58 am 07:58 Cloudy with Rain 41 5.2 40 4.3 94 94 NNE 9 15 29.94 1014 4 6.43736 0.13 3.302
8:58 am 08:58 Cloudy with Rain 42 5.4 40 4.4 93 93 N 14 22 29.97 1015 10 16.0934 0.11 2.794
9:58 am 09:58 Cloudy with Rain 42 5.8 40 4.7 93 93 N 12 19 29.96 1015 10 16.0934 0.08 2.032
10:58 am 10:58 Cloudy with Rain 45 7.2 43 5.9 92 92 NNE 18 30 29.97 1015 10 16.0934 0.05 1.27
11:58 am 11:58 Cloudy with Light Rain 45 7.4 43 6.3 93 93 NNE 13 20 29.98 1015 10 16.0934 0.06 1.524
12:58 pm 12:58 Cloudy with Rain 44 6.9 42 5.8 93 93 NNE 16 26 30.01 1016 10 16.0934 0.03 0.762
1:58 pm 13:58 Mostly Cloudy with Light Showers 45 7.3 43 6 92 92 NNE 12 19 30.03 1017 10 16.0934 0.06 1.524
2:58 pm 14:58 Cloudy 48 9 44 6.6 85 85 NE 13 20 30.05 1018 10 16.0934 0.01 0.254
3:58 pm 15:58 Mostly Cloudy 51 10.5 46 7.8 84 84 N 7 11 30.02 1017 10 16.0934 N/A
4:58 pm 16:58 Mostly Cloudy with Light Showers 51 10.4 43 6 74 74 E 5 7 30.05 1018 10 16.0934 N/A
5:58 pm 17:58 Mostly Cloudy with Showers 46 7.8 43 6.3 90 90 WSW 3 6 30.07 1018 10 16.0934 0.13 3.302
6:58 pm 18:58 Sunny 50 10.2 44 6.6 79 79 NNW 8 13 30.07 1018 10 16.0934 N/A
7:58 pm 19:58 Mostly Clear 43 6.2 40 4.2 87 87 NE 6 9 30.14 1021 10 16.0934 N/A
8:58 pm 20:58 Mostly Clear 43 6.3 40 4.7 90 90 SW 6 9 30.16 1021 10 16.0934 0 0
9:58 pm 21:58 Clear 43 6.2 38 3.5 83 83 WSW 9 15 30.19 1022 10 16.0934 N/A
10:58 pm 22:58 Clear 41 4.9 38 3.6 91 91 W 12 19 30.21 1023 10 16.0934 N/A
11:58 pm 23:58 Clear 42 5.4 39 3.7 89 89 W 9 15 30.22 1023 10 16.0934 0 0

Powered by AerisWeather